GSAT0206 (GALILEO 10)

Last updated on Fri Jun 19 2026 17:09:21 GMT+0000 (Coordinated Universal Time)

1 40890U 15045B 26169.04387372 .00000032 00000+0 00000+0 0 9997 2 40890 54.9444 221.5807 0001779 334.3054 25.7732 1.70473811 67050
UTC large
Height (km)
Speed (km/s)
/
Latitude / Longitude
Inclination (degrees)
Orbital Period (minutes)
Azimuth
Elevation
Range (km)
Doppler Factor

Next 0 passes for location: London (51.5072 / 0.1276)

No passes found over London.
GSAT0206 (GALILEO 10)